, AK

(GMT )
Anchorage

Weather History for PANC - May, 2013

Change the Weather History Date:

Sunday, May 12, 2013

  Actual Average Record
Temperature  
Mean Temperature 47 °F 47 °F  
Max Temperature 52 °F 55 °F 68 °F (1968)
Min Temperature 41 °F 38 °F 30 °F (1973)
Degree Days  
Heating Degree Days 18    
Month to date heating degree days 282  
Since 1 July heating degree days 10030  
Cooling Degree Days 0    
Month to date cooling degree days 0  
Year to date cooling degree days 0  
Moisture  
Dew Point 39 °F    
Average Humidity 65    
Maximum Humidity 76    
Minimum Humidity 54    
Precipitation  
Precipitation 0.01 in 0.02 in 0.37 in (1962)
Month to date precipitation 0.70 0.24  
Year to date precipitation 5.55 2.76  
Snow  
Snow 0.00 in 0.00 in 0.00 in ()
Month to date snowfall 0.9 0.2  
Since 1 July snowfall 93.6 74.4  
Snow Depth T in    
Sea Level Pressure  
Sea Level Pressure 29.51 in    
Wind  
Wind Speed 2 mph (North)    
Max Wind Speed 6 mph    
Max Gust Speed -    
Visibility 10 miles    
Events Rain    
T = Trace of Precipitation, MM = Missing Value Source: NWS Daily Summary

Daily Weather History Graph

Daily Weather History Graph

Search for Another Location

Airport or City:

Trip Planner

Search our weather history database for the weather conditions in past years. The results will help you decide how hot, cold, wet, or windy it might be!

Date:

Astronomy

May. 12, 2013 Rise Set
Actual Time 5:19 AM AKDT 10:34 PM AKDT
Civil Twilight 4:13 AM AKDT 11:42 PM AKDT
Nautical Twilight 2:28 AM AKDT 1:23 AM AKDT
Astronomical Twilight Sun does not set Sun does not set
Moon 7:12 AM AKDT (5/12) 12:31 AM AKDT (5/12)
Length of Visible Light 19h 29m
Length of Day
17h 14m
Waxing Crescent, 7% of the Moon is Illuminated
May 12
Waxing Crescent
May 17
First Quarter
May 24
Full
May 31
Last Quarter
Jun 8
New

Hourly Weather History & Observations

Time (AKDT) Temp. Windchill Dew Point Humidity Pressure Visibility Wind Dir Wind Speed Gust Speed Precip Events Conditions
12:53 AM 46.0 °F - 39.0 °F 76% 29.57 in 10.0 mi Calm Calm - 0.00 in Rain Light Rain
1:53 AM 46.0 °F - 39.9 °F 79% 29.57 in 10.0 mi Calm Calm - 0.00 in   Overcast
2:53 AM 46.0 °F - 39.9 °F 79% 29.56 in 10.0 mi Calm Calm - 0.00 in Rain Light Rain
3:53 AM 45.0 °F 41.8 °F 37.0 °F 74% 29.55 in 10.0 mi West 5.8 mph - 0.00 in Rain Light Rain
4:53 AM 44.1 °F - 36.0 °F 73% 29.54 in 10.0 mi Calm Calm - 0.00 in Rain Light Rain
5:53 AM 42.1 °F - 36.0 °F 79% 29.53 in 10.0 mi Calm Calm - 0.00 in Rain Light Rain
6:53 AM 44.1 °F - 35.1 °F 71% 29.53 in 10.0 mi Calm Calm - 0.00 in Rain Light Rain
7:53 AM 46.0 °F - 36.0 °F 68% 29.52 in 10.0 mi Calm Calm - 0.00 in Rain Light Rain
8:53 AM 46.9 °F - 33.1 °F 59% 29.52 in 10.0 mi NNW 3.5 mph - 0.00 in   Overcast
9:53 AM 48.0 °F - 34.0 °F 58% 29.52 in 10.0 mi NNW 4.6 mph - N/A   Overcast
10:53 AM 48.9 °F - 34.0 °F 56% 29.52 in 10.0 mi WNW 3.5 mph - N/A   Mostly Cloudy
11:53 AM 50.0 °F - 35.1 °F 57% 29.52 in 10.0 mi Calm Calm - N/A   Overcast
12:53 PM 53.1 °F - 37.9 °F 57% 29.52 in 10.0 mi NNW 3.5 mph - N/A   Overcast
1:53 PM 50.0 °F - 39.0 °F 66% 29.52 in 10.0 mi NW 3.5 mph - 0.00 in Rain Light Rain
2:53 PM 48.9 °F - 39.9 °F 71% 29.51 in 10.0 mi NW 6.9 mph - 0.00 in Rain Light Rain
3:53 PM 52.0 °F - 42.1 °F 69% 29.50 in 10.0 mi NNE 4.6 mph - 0.01 in Rain Light Rain
4:53 PM 52.0 °F - 43.0 °F 71% 29.49 in 10.0 mi NE 4.6 mph - 0.00 in Rain Light Rain
5:53 PM 51.1 °F - 42.1 °F 71% 29.49 in 10.0 mi Calm Calm - 0.01 in Rain Light Rain
6:53 PM 50.0 °F - 42.1 °F 74% 29.48 in 10.0 mi NE 3.5 mph - 0.02 in Rain Light Rain
7:53 PM 48.9 °F - 43.0 °F 80% 29.48 in 10.0 mi NE 3.5 mph - 0.02 in Rain Light Rain
8:53 PM 48.0 °F - 41.0 °F 77% 29.48 in 7.0 mi ENE 3.5 mph - 0.03 in Rain Light Rain
9:53 PM 46.9 °F - 42.1 °F 83% 29.47 in 7.0 mi ESE 10.4 mph - 0.04 in Rain Light Rain
10:53 PM 46.9 °F - 43.0 °F 86% 29.47 in 10.0 mi SE 5.8 mph - 0.00 in Rain Light Rain
11:53 PM 45.0 °F 41.2 °F 41.0 °F 86% 29.47 in 10.0 mi SSE 6.9 mph - 0.00 in Rain Light Rain